Tracking 30074 objects as of 13-Jan-2025
HD Live streaming from Space Station
objects crossing your sky now

ITASAT-1

Track ITASAT-1 now!
10-day predictions
ITASAT-1 is classified as:


NORAD ID: 43786
Int'l Code: 2018-099AE
Perigee: 533.7 km
Apogee: 555.0 km
Inclination: 97.5 °
Period: 95.4 minutes
Semi major axis: 6915 km
RCS: Unknown
Launch date: December 3, 2018
Source: (TBD)
Launch site: AIR FORCE WESTERN TEST RANGE (AFWTR)

Uplink (MHz):
Downlink (MHz): 145.860/2400.150
Beacon (MHz):
Mode: 1k2 BPSK/14k4 BPSK
Call sign: PY0EIA
Status: Inactive

Your satellite tracking list
Your tracking list is empty




NASA's NSSDC Master Catalog

Two Line Element Set (TLE):
1 43786U 18099AE  25013.11115489  .00008155  00000-0  50870-3 0  9998
2 43786  97.4811  70.8559 0015390 359.7168   0.4050 15.09678504334184
Source of the keplerian elements: AMSAT